Regional Weather Roundup
Issued by NWS

Home | Current Version | Previous Version | Text Only | Print | Product List | Glossary Off
Versions: 1 2 3 4 5 6 7 8 9 10 11 12 13 14 15 16 17 18 19 20 21 22 23 24 25 26 27 28 29 30 31 32 33 34 35 36 37 38 39 40 41 42 43 44 45 46 47 48 49 50

000
ASUS43 KFSD 311802
RWRSD

WEATHER ROUNDUP FOR SOUTH DAKOTA
NATIONAL WEATHER SERVICE SIOUX FALLS SD
1200 PM CST SAT JAN 31 2015

NOTE: "FAIR" INDICATES FEW OR NO CLOUDS BELOW 12,000 FEET WITH NO
SIGNIFICANT WEATHER AND/OR OBSTRUCTIONS TO VISIBILITY.


SDZ001>005-009-010-012>017-311900-
NORTHWEST AND NORTH CENTRAL SOUTH DAKOTA

CITY           SKY/WX    TMP DP  RH WIND       PRES   REMARKS
BUFFALO          N/A     22  20  92 E16       29.96F WCI   8
FAITH            N/A     23  19  85 E14       30.10S WCI  11
MOBRIDGE       CLOUDY    21  16  81 E16       30.19R WCI   7
$$

SDZ012>016-024>037-041>051-057-063-072>074-311900-
SOUTHWEST AND SOUTH CENTRAL SOUTH DAKOTA

CITY           SKY/WX    TMP DP  RH WIND       PRES   REMARKS
RAPID CTY ARPT FOG       26  26 100 SE10      30.02S VSB 1/4 WCI  16
PIERRE         CLOUDY    22  20  92 E22       30.13F FOG     WCI   6
CUSTER         CLOUDY    27  21  78 E8        29.91S WCI  19
ELLSWORTH AFB  FRZ DRZL  26  26  98 SE13      30.01  VSB<1/4 WCI  15
PHILIP         FOG       24  22  91 E14       30.09S VSB 1/2 WCI  12
PINE RIDGE     CLOUDY    31  25  78 E9        29.97F WCI  23
WINNER         FRZ RAIN  26  24  92 NE15      30.07F VSB 1/4 WCI  14
$$

SDZ004>011-016>023-039-040-311900-
NORTHEAST SOUTH DAKOTA

CITY           SKY/WX    TMP DP  RH WIND       PRES   REMARKS
ABERDEEN       CLOUDY    17   8  67 NE16      30.27R WCI   2
WATERTOWN      LGT SNOW  18  15  88 NE16      30.18S FOG     WCI   3
SISSETON         N/A     16   9  74 NE16      30.27  WCI   1
$$

SDZ017-020-022-023-036>040-048>070-311900-
SOUTHEAST SOUTH DAKOTA

CITY           SKY/WX    TMP DP  RH WIND       PRES   REMARKS
SIOUX FALLS    CLOUDY    26  24  92 NE15      30.12F FOG     WCI  14
HURON          CLOUDY    23  18  81 NE20      30.17F WCI   8
MITCHELL       CLOUDY    26  24  92 NE18      30.15R FOG     WCI  13
YANKTON        CLOUDY    30  27  86 NE14      30.10S WCI  20
$$

ABBREVIATIONS USED IN REMARKS
   TC - TEMPERATURE IN CELSIUS
  WCI - WIND CHILL INDEX
   HX - HEAT INDEX
  VSB - VISIBILITY



USA.gov is the U.S. government's official web portal to all federal, state and local government web resources and services.